Location: Burgberg
(50.1428°N, 11.0671°E)
Time: 09:32:40
(UTC+00:00)

Cosmos 2151 - Pass Details

Date: 26 January 2020
Orbit: 582 x 600 km, 82.5° (Epoch: 27 February)

Event Time Altitude Azimuth Distance (km) Brightness Sun altitude
Rises 05:40:50 0° 354° (N) 2,851 6.3 -12.4°
Reaches altitude 10° 05:43:07 10° 0° (N) 1,947 5.5 -12.0°
Maximum altitude 05:47:17 46° 75° (ENE) 808 4.1 -11.4°
Drops below altitude 10° 05:51:25 10° 149° (SSE) 1,938 6.3 -10.7°
Sets 05:53:41 0° 156° (SSE) 2,837 7.1 -10.4°
